Weather in Silute

Lithuania     55°20′57″N   21°28′06″E
temp.,
°C
wind,
m/s
gust,
m/s
humid.,
%
clouds,
%
prec.,
mm/h
press.,
hPa
HPBL,
m
27 february, sat
sat2723:00+3wnw512880 0.0 1019340
02:00+3nw411880 0.0 1020285
05:00+3nw5138829 0.0 1021418
08:00+2nw5138815 0.0 1024502
11:00+4nnw612770 0.0 1026605
14:00+5nw712710 0.0 1028679
17:00+3nw611780 0.0 1028543
20:00+1nw410890 0.0 1030290
28 february, sun
sun2823:00+1wnw379329 0.0 1030171
02:00+2w368865 0.0 1030150
05:00+1w368967 0.0 1028105
08:00+2w488980 0.0 1028190
11:00+4w488790 0.0 1027349
14:00+6nw5107875 0.0 1027492
17:00+5nw598072 0.0 1027331
20:00+3nw488836 0.0 1029202
1 march, mon
mon123:00+3nw49900 0.0 1030225
02:00+2nw37910 0.0 1031152
05:00+2nw34920 0.0 103084
08:00+2wnw33900 0.0 103261
11:00+6w49720 0.0 1031369
14:00+6w59770 0.0 1030381
17:00+4w6148619 0.0 1029451
20:00+3w6129143 0.0 1029435
2 march, tue
tue223:00+3w499329 0.0 1029251
02:00+2w239415 0.0 103055
05:00+2w23920 0.0 102934
08:00+2w23920 0.0 102969
11:00+5w46820 0.0 1029309
14:00+5w46830 0.0 1029359
17:00+3w479358 0.0 1029391
20:00+2wnw359379 0.0 1029343
3 march, wed
wed323:00+2w2492100 0.0 1030229
02:00+1wsw129596 0.0 103079
05:00+1sw2393100 0.0 1029243
08:00+1ssw2392100 0.0 1028284
11:00+2sw2489100 0.0 1028384
14:00+4sw2483100 0.0 1027507
17:00+5sw248099 0.0 1025474
20:00+2ssw239250 0.0 102331